Tracking 23762 objects as of 21-Oct-2021
HD Live streaming from Space Station
objects crossing your sky now

USA 179

Track USA 179 now!
USA 179 is classified as:


NORAD ID: 28384
Int'l Code: 2004-034A
Perigee: 1,065.8 km
Apogee: 39,303.0 km
Inclination: 63.8 °
Period: 717.8 minutes
Semi major axis: 26555 km
RCS: Unknown
Launch date: August 31, 2004
Source: United States (US)
Launch site: AIR FORCE EASTERN TEST RANGE (AFETR)
aabbcc
Your satellite tracking list
Your tracking list is empty




NASA's NSSDC Master Catalog

Two Line Element Set (TLE):
1 28384U 04034A   21158.60718182 0.00000000  00000-0  00000-0 0    09
2 28384  63.7960 122.2901 7199501 267.6129  16.1437  2.00619800    08
Source of the keplerian elements: McCants